Location: Crab Orchard
(37.7292°N, 88.8042°W)
Time: 04:32:29
(UTC+00:00)

Lacrosse 5 rocket - Pass Details

Date: 08 December 2019
Orbit: 465 x 632 km, 57.0° (Epoch: 28 January)

Event Time Altitude Azimuth Distance (km) Brightness Sun altitude
Rises 23:29:32 0° 246° (WSW) 2,830 7.3 -10.4°
Reaches altitude 10° 23:32:04 10° 257° (WSW) 1,904 5.6 -10.9°
Maximum altitude 23:35:54 31° 319° (NW) 1,016 2.9 -11.6°
Drops below altitude 10° 23:39:35 10° 23° (NNE) 1,819 3.6 -12.3°
Enters shadow 23:39:49 - 24° (NNE) 1,898 3.7 -12.3°
